Location: Unspecified
(0.0000°N, 0.0000°E)
Time: 04:48:58
(UTC+00:00)

Explorer 7 - Visible Passes

Search period start: 18 June 2019 00:00
Search period end: 28 June 2019 00:00
Orbit: 485 x 680 km, 50.3° (Epoch: 17 June)

Date Brightness Start Highest point End Pass type
(mag) Time Alt. Az. Time Alt. Az. Time Alt. Az.
18 Jun 7.6 18:34:15 10° NNW 18:38:50 46° NE 18:42:54 12° SE visible
18 Jun 9.7 20:17:12 10° W 20:19:13 13° SW 20:19:17 13° SW visible
19 Jun 7.2 18:39:04 10° NW 18:43:53 85° SW 18:48:25 10° SE visible
20 Jun 8.2 18:44:23 10° WNW 18:48:53 41° SW 18:53:12 10° SSE visible
21 Jun 9.2 05:08:10 10° SSE 05:10:32 16° SE 05:12:56 10° E visible
21 Jun 9.3 18:50:21 10° WNW 18:53:54 21° SW 18:57:21 10° S visible
22 Jun 8.1 05:12:05 10° SSW 05:15:33 34° SE 05:19:08 10° ENE visible
22 Jun 10.0 18:58:16 10° WSW 18:58:57 10° SW 18:59:37 10° SW visible
23 Jun 6.7 05:16:51 11° SW 05:20:33 83° SE 05:24:30 10° NE visible
24 Jun 7.3 05:22:20 12° WSW 05:25:36 40° NW 05:29:18 10° NNE visible
25 Jun 9.1 03:51:27 18° ESE 03:51:27 18° ESE 03:53:12 10° ENE visible
25 Jun 8.4 05:28:00 10° W 05:30:40 18° NW 05:33:24 10° N visible
26 Jun 8.5 03:56:52 29° ENE 03:56:52 29° ENE 03:59:04 10° NE visible
27 Jun 8.4 04:02:15 29° NNE 04:02:15 29° NNE 04:04:13 10° NNE visible
